College Station, TX

8:08 PM CST on February 06, 2016 (GMT -0600)
Easterwood

Weather History for KCLL - October, 2013

Change the Weather History Date:

Sunday, October 6, 2013

  Actual Average Record
Temperature  
Mean Temperature 69 °F 74 °F  
Max Temperature 81 °F 84 °F 98 °F (1912)
Min Temperature 56 °F 63 °F 44 °F (1915)
Degree Days  
Heating Degree Days 0 0  
Month to date heating degree days 0 0  
Since 1 July heating degree days 0 2  
Cooling Degree Days 4 9  
Month to date cooling degree days 76 58  
Year to date cooling degree days 3109 2854  
Growing Degree Days 18 (Base 50)    
Moisture  
Dew Point 47 °F    
Average Humidity 57    
Maximum Humidity 93    
Minimum Humidity 21    
Precipitation  
Precipitation 0.10 in 0.15 in 2.66 in (1930)
Month to date precipitation 0.74 0.86  
Year to date precipitation 25.66 29.56  
Sea Level Pressure  
Sea Level Pressure 30.06 in    
Wind  
Wind Speed 8 mph (NNW)    
Max Wind Speed 18 mph    
Max Gust Speed 28 mph    
Visibility 10 miles    
Events Rain , Thunderstorm    
T = Trace of Precipitation, MM = Missing Value Source: NWS Daily Summary

Daily Weather History Graph

Daily Weather History Graph

Search for Another Location

Airport or City:

Trip Planner

Search our weather history database for the weather conditions in past years. The results will help you decide how hot, cold, wet, or windy it might be!

Date:

Astronomy

Oct. 06, 2013 Rise Set
Actual Time 7:22 AM CDT 7:04 PM CDT
Civil Twilight 6:58 AM CDT 7:28 PM CDT
Nautical Twilight 6:30 AM CDT 7:56 PM CDT
Astronomical Twilight 6:02 AM CDT 8:24 PM CDT
Moon 8:58 AM CDT (10/6) 8:14 PM CDT (10/6)
Length of Visible Light 12h 30m
Length of Day
11h 42m
Waxing Crescent, 3% of the Moon is Illuminated
Oct 6
Waxing Crescent
Oct 11
First Quarter
Oct 18
Full
Oct 26
Last Quarter
Nov 3
New

Hourly Weather History & Observations

Time (CDT) Temp. Dew Point Humidity Pressure Visibility Wind Dir Wind Speed Gust Speed Precip Events Conditions
12:53 AM 61.0 °F 46.9 °F 60% 30.03 in 10.0 mi North 11.5 mph - N/A   Clear
1:53 AM 60.1 °F 48.0 °F 64% 30.04 in 10.0 mi North 11.5 mph - N/A   Clear
2:53 AM 59.0 °F 48.9 °F 69% 30.02 in 10.0 mi North 9.2 mph - N/A   Clear
3:53 AM 60.1 °F 48.9 °F 67% 30.02 in 10.0 mi NNW 10.4 mph - N/A   Scattered Clouds
4:53 AM 61.0 °F 48.9 °F 64% 30.03 in 10.0 mi NNW 9.2 mph - N/A   Overcast
5:10 AM 60.8 °F 48.2 °F 63% 30.06 in 10.0 mi NW 10.4 mph - N/A Thunderstorm Overcast
5:53 AM 57.0 °F 52.0 °F 83% 30.08 in 10.0 mi NNW 8.1 mph - 0.03 in Rain , Thunderstorm Light Rain
6:11 AM 57.2 °F 53.6 °F 88% 30.07 in 7.0 mi North 11.5 mph - 0.04 in Rain Rain
6:53 AM 57.0 °F 53.1 °F 87% 30.06 in 10.0 mi WNW 8.1 mph - 0.07 in Rain Light Rain
7:53 AM 57.0 °F 55.0 °F 93% 30.09 in 10.0 mi SW 3.5 mph - 0.00 in   Clear
8:53 AM 57.9 °F 55.9 °F 93% 30.11 in 10.0 mi West 5.8 mph - N/A   Clear
9:53 AM 61.0 °F 57.0 °F 87% 30.12 in 10.0 mi NW 6.9 mph - N/A   Clear
10:53 AM 66.9 °F 54.0 °F 63% 30.12 in 10.0 mi NNW 9.2 mph - N/A   Clear
11:53 AM 73.0 °F 51.1 °F 46% 30.11 in 10.0 mi North 11.5 mph - N/A   Clear
12:53 PM 75.0 °F 43.0 °F 32% 30.10 in 10.0 mi North 13.8 mph - N/A   Clear
1:53 PM 78.1 °F 44.1 °F 30% 30.06 in 10.0 mi North 13.8 mph 20.7 mph N/A   Clear
2:53 PM 79.0 °F 41.0 °F 26% 30.03 in 10.0 mi NW 12.7 mph 21.9 mph N/A   Clear
3:53 PM 79.0 °F 39.0 °F 24% 30.02 in 10.0 mi NW 15.0 mph - N/A   Clear
4:53 PM 79.0 °F 36.0 °F 21% 30.01 in 10.0 mi NW 13.8 mph - N/A   Clear
5:53 PM 78.1 °F 36.0 °F 22% 30.01 in 10.0 mi NNW 9.2 mph - N/A   Clear
6:53 PM 73.9 °F 39.0 °F 28% 30.03 in 10.0 mi NNW 8.1 mph - N/A   Clear
7:53 PM 69.1 °F 39.0 °F 33% 30.06 in 10.0 mi North 4.6 mph - N/A   Clear
8:53 PM 64.9 °F 42.1 °F 43% 30.08 in 10.0 mi North 3.5 mph - N/A   Clear
9:53 PM 61.0 °F 46.9 °F 60% 30.09 in 10.0 mi Calm Calm - N/A   Clear
10:53 PM 59.0 °F 48.0 °F 67% 30.09 in 10.0 mi Calm Calm - N/A   Clear
11:53 PM 57.0 °F 48.0 °F 72% 30.09 in 10.0 mi Calm Calm - N/A   Clear